Weather History for Macon, GA

Change the Weather History Date:

Sunday, November 4, 2012

  Actual Average Record
Temperature  
Mean Temperature 66 °F 59 °F  
Max Temperature 83 °F 72 °F 87 °F (1961)
Min Temperature 49 °F 46 °F 26 °F (2006)
Degree Days  
Heating Degree Days 0 7  
Month to date heating degree days 20 26  
Since 1 July heating degree days 86 129  
Cooling Degree Days 1 1  
Month to date cooling degree days 1 4  
Year to date cooling degree days 2297 2148  
Growing Degree Days 15 (Base 50)    
Moisture  
Dew Point 53 °F    
Average Humidity 69    
Maximum Humidity 100    
Minimum Humidity 37    
Precipitation  
Precipitation 0.00 in 0.10 in 3.50 in (1896)
Month to date precipitation 0.00 0.37  
Year to date precipitation 26.17 38.69  
Snow  
Snow 0.00 in 0.00 in 0.00 in (2002)
Month to date snowfall 0.0 0.0  
Since 1 July snowfall 0.0 0.0  
Since 1 September snowfall 0.0 0.0  
Snow Depth -    
Sea Level Pressure  
Sea Level Pressure 29.99 in    
Wind  
Wind Speed 7 mph (WNW)    
Max Wind Speed 20 mph    
Max Gust Speed 24 mph    
Visibility 9 miles    
Events      
T = Trace of Precipitation, MM = Missing Value Source: NWS Daily Summary

Daily Weather History Graph

Daily Weather History Graph

Search for Another Location

Airport:

Trip Planner

Search our weather history database for the weather conditions in past years. The results will help you decide how hot, cold, wet, or windy it might be!

Date:

Astronomy

Nov. 04, 2012 Rise Set
Actual Time 6:55 AM EST 5:40 PM EST
Civil Twilight 6:29 AM EST 6:06 PM EST
Nautical Twilight 6:00 AM EST 6:35 PM EST
Astronomical Twilight 5:31 AM EST 7:04 PM EST
Moon 10:20 PM EST (11/4) 11:34 AM EST (11/4)
Length of Visible Light 11h 36m
Length of Day
10h 45m
Waning Gibbous, 72% of the Moon is Illuminated
Nov 4
Waning Gibbous
Nov 6
Last Quarter
Nov 13
New
Nov 20
First Quarter
Nov 28
Full

Hourly Weather History & Observations

Time (EST) Temp. Heat Index Dew Point Humidity Pressure Visibility Wind Dir Wind Speed Gust Speed Precip Events Conditions
12:53 AM 64.0 °F - 55.0 °F 73% 30.02 in 10.0 mi WSW 3.5 mph - N/A   Clear
1:53 AM 61.0 °F - 55.0 °F 81% 30.02 in 8.0 mi West 3.5 mph - N/A   Clear
1:53 AM 60.1 °F - 55.0 °F 83% 30.03 in 9.0 mi WSW 3.5 mph - N/A   Clear
2:53 AM 55.9 °F - 53.1 °F 90% 30.01 in 9.0 mi Calm Calm - N/A   Clear
3:53 AM 54.0 °F - 52.0 °F 93% 30.01 in 9.0 mi West 3.5 mph - N/A   Clear
4:53 AM 54.0 °F - 51.1 °F 90% 30.02 in 9.0 mi Calm Calm - N/A   Clear
5:53 AM 50.0 °F - 48.0 °F 93% 30.02 in 8.0 mi Calm Calm - N/A   Clear
6:53 AM 50.0 °F - 50.0 °F 100% 30.03 in 6.0 mi Calm Calm - N/A   Clear
7:53 AM 55.9 °F - 53.1 °F 90% 30.03 in 6.0 mi Calm Calm - N/A   Clear
8:53 AM 64.9 °F - 57.0 °F 75% 30.03 in 10.0 mi WSW 4.6 mph - N/A   Clear
9:53 AM 73.9 °F - 57.9 °F 57% 30.03 in 10.0 mi West 9.2 mph - N/A   Clear
10:53 AM 78.1 °F - 55.9 °F 46% 30.01 in 10.0 mi West 13.8 mph - N/A   Clear
11:53 AM 82.0 °F 81.2 °F 53.1 °F 37% 30.00 in 10.0 mi West 12.7 mph 19.6 mph N/A   Clear
12:53 PM 80.1 °F 80.1 °F 55.0 °F 42% 29.97 in 10.0 mi West 15.0 mph 23.0 mph N/A   Clear
1:53 PM 80.1 °F 80.1 °F 55.0 °F 42% 29.94 in 10.0 mi West 15.0 mph 20.7 mph N/A   Clear
2:53 PM 80.1 °F 80.0 °F 54.0 °F 40% 29.94 in 10.0 mi WNW 12.7 mph 23.0 mph N/A   Clear
3:53 PM 79.0 °F - 50.0 °F 36% 29.93 in 10.0 mi West 13.8 mph 21.9 mph N/A   Partly Cloudy
4:53 PM 75.0 °F - 53.1 °F 46% 29.94 in 10.0 mi NW 10.4 mph - N/A   Partly Cloudy
5:53 PM 72.0 °F - 50.0 °F 46% 29.95 in 10.0 mi NW 6.9 mph - N/A   Mostly Cloudy
6:53 PM 70.0 °F - 50.0 °F 49% 29.97 in 10.0 mi NW 5.8 mph - N/A   Mostly Cloudy
7:53 PM 66.9 °F - 52.0 °F 59% 29.97 in 10.0 mi NW 6.9 mph - N/A   Scattered Clouds
8:53 PM 64.9 °F - 53.1 °F 65% 29.98 in 10.0 mi WNW 6.9 mph - N/A   Clear
9:53 PM 63.0 °F - 54.0 °F 72% 29.98 in 10.0 mi NNW 6.9 mph - N/A   Clear
10:53 PM 60.1 °F - 50.0 °F 69% 29.99 in 10.0 mi NW 6.9 mph - N/A   Clear